Regional Weather Roundup
Issued by NWS Glasgow, MT

Home | Current Version | Previous Version | Text Only | Print | Product List | Glossary On
Versions: 1 2 3 4 5 6 7 8 9 10 11 12 13 14 15 16 17 18 19 20 21 22 23 24 25 26 27 28 29 30 31 32 33 34 35 36 37 38 39 40 41 42 43 44 45 46 47 48 49 50
000
ASUS45 KGGW 222315
RWRGGW
HOURLY WEATHER ROUNDUP FOR NORTHEAST MONTANA
NATIONAL WEATHER SERVICE GLASGOW MONTANA
500 PM MDT FRI MAY 22 2015

NOTE: "FAIR" INDICATES FEW OR NO CLOUDS BELOW 12,000 FEET WITH NO
SIGNIFICANT WEATHER AND/OR OBSTRUCTIONS TO VISISBILITY.

NORTHEAST MONTANA


CITY           SKY/WX    TMP DP  RH WIND       PRES   REMARKS
GLASGOW        CLOUDY    72  40  31 SE18G25   29.96F
WOLF POINT     PTSUNNY   74  39  28 SE13G18   29.98F
JORDAN           N/A     72  42  34 SE20G29   29.94F
WINNETT          N/A     71  43  36 E8G16       N/A
SIDNEY         MOSUNNY   75  30  19 SE14      30.01F
GLENDIVE       CLOUDY    70  39  32 SE13G23   30.00F
MALTA            N/A     73  45  36 SE12G23     N/A
OPHEIM           N/A     68  27  21 E9        29.84S

FORT PECK REPORTS


CITY           SKY/WX    TMP DP  RH WIND       PRES   REMARKS
FORT PECK        N/A     70  43  37 E20         N/A
THE PINES        N/A     70  39  32 SE7G16      N/A

SOUTHEAST MONTANA


CITY           SKY/WX    TMP DP  RH WIND       PRES   REMARKS
BILLINGS       PTSUNNY   69  45  41 E14       29.89F
MILES CITY     CLOUDY    70  43  37 SE18G28   29.95F
BAKER          CLOUDY    70  39  32 S18G28    30.02F
LIVINGSTON     PTSUNNY   70  45  40 E17G23    29.88F

CENTRAL MONTANA


CITY           SKY/WX    TMP DP  RH WIND       PRES   REMARKS
HAVRE          SUNNY     73  43  33 SE12G21   29.93S
LEWISTOWN      CLOUDY    61  45  55 E7        29.95S
GREAT FALLS    MOSUNNY   70  37  29 VRB5      29.91F
CUT BANK       PTSUNNY   71  35  26 E15       29.96S
HELENA         PTSUNNY   70  39  32 N10       29.89S
BUTTE          PTSUNNY   64  36  35 E15       29.94F
BOZEMAN        CLOUDY    61  48  62 W5        29.90S

WESTERN MONTANA


CITY           SKY/WX    TMP DP  RH WIND       PRES   REMARKS
MISSOULA       MOSUNNY   73  43  33 N7        29.83S
KALISPELL      NOT AVBL

NORTH DAKOTA


CITY           SKY/WX    TMP DP  RH WIND       PRES   REMARKS
WILLISTON      SUNNY     76  32  20 SE15G25   30.03F
DICKINSON      MOSUNNY   70  34  26 SE22G28   30.04F
MINOT          PTSUNNY   76  30  18 E6        30.07F
BISMARCK       MOSUNNY   74  37  26 SE15G23   30.08F

SOUTHERN SASKATCHEWAN


CITY           SKY/WX    TMP DP  RH WIND       PRES   REMARKS
REGINA         MOSUNNY   73  36  25 S7        30.04F
MOOSE JAW      MOSUNNY   77  32  19 S8        30.04S
ESTEVAN        MOSUNNY   75  30  19 S14G21    30.06F
SWIFT CURRENT  SUNNY     73  27  17 SE13G23   30.01F



USA.gov is the U.S. government's official web portal to all federal, state and local government web resources and services.